Location: Hamburg
(53.5554°N, 9.9941°E)
Time: 21:46:23
(UTC+02:00)

ISS - Visible Passes

Search period start: 25 September 2020 00:00
Search period end: 05 October 2020 00:00
Orbit: 419 x 420 km, 51.6° (Epoch: 26 September)

Date Brightness Start Highest point End Pass type
(mag) Time Alt. Az. Time Alt. Az. Time Alt. Az.
25 Sep -3.7 20:58:07 10° W 21:01:29 64° S 21:02:08 49° SE visible
25 Sep -0.6 22:34:53 10° W 22:35:06 11° W 22:35:06 11° W visible
26 Sep -3.6 20:10:47 10° WSW 20:14:08 62° S 20:16:31 18° E visible
26 Sep -2.1 21:47:30 10° W 21:49:28 30° WSW 21:49:28 30° WSW visible
27 Sep -3.6 21:00:06 10° W 21:03:26 56° S 21:03:50 52° SSE visible
28 Sep -3.6 20:12:43 10° W 20:16:04 62° S 20:18:11 20° ESE visible
28 Sep -1.6 21:49:32 10° W 21:51:09 22° WSW 21:51:09 22° WSW visible
29 Sep -3.0 21:02:05 10° W 21:05:16 40° SSW 21:05:30 39° S visible
30 Sep -3.2 20:14:38 10° W 20:17:56 48° SSW 20:19:53 21° SE visible
30 Sep -1.0 21:51:51 10° W 21:52:51 14° WSW 21:52:51 14° WSW visible
01 Oct -3.3 19:27:13 10° W 19:30:32 56° S 19:33:52 10° ESE visible
01 Oct -2.1 21:04:11 10° W 21:06:58 24° SSW 21:07:15 24° SSW visible
02 Oct -2.3 20:16:37 10° W 20:19:39 31° SSW 20:21:42 17° SSE visible
03 Oct -2.6 19:29:06 10° W 19:32:17 39° SSW 19:35:29 10° SE visible
03 Oct -1.1 21:06:50 10° WSW 21:08:27 13° SW 21:09:10 12° SSW visible
04 Oct -1.4 20:18:50 10° WSW 20:21:12 18° SW 20:23:34 10° S visible
